Location: Marstown
(39.5056°N, 77.0820°W)
Time: 00:27:11
(UTC-04:00)

Tiangong 1 - Visible Passes

Search period start: 25 September 2017 00:00
Search period end: 05 October 2017 00:00
Orbit: 303 x 328 km, 42.8° (Epoch: 24 September)

Date Brightness Start Highest point End Pass type
(mag) Time Alt. Az. Time Alt. Az. Time Alt. Az.
25 Sep 4.0 04:52:01 12° ESE 04:52:01 12° ESE 04:52:13 10° ESE visible
25 Sep 2.5 06:22:51 11° WSW 06:24:31 17° SSW 06:26:20 10° S visible
26 Sep 3.8 05:05:18 11° SE 05:05:18 11° SE 05:05:25 10° SE visible
03 Oct 2.5 19:38:16 10° S 19:40:06 17° SSE 19:40:43 16° SE visible
04 Oct 1.4 19:49:57 10° SW 19:52:28 36° SSE 19:52:59 32° ESE visible
